Regional Weather Roundup
Issued by NWS Wakefield, VA

Home | Current Version | Previous Version | Text Only | Print | Product List | Glossary Off
Versions: 1 2 3 4 5 6 7 8 9 10 11 12 13 14 15 16 17 18 19 20 21 22 23 24 25 26 27 28 29 30 31 32 33 34 35 36 37 38 39 40 41 42 43 44 45 46 47 48 49 50

000
ASUS41 KAKQ 200110
RWRAKQ

REGIONAL WEATHER ROUNDUP
NATIONAL WEATHER SERVICE WAKEFIELD VA
900 PM EDT TUE AUG 19 2014

Note: "fair" indicates few or no clouds below 12,000 feet with no
significant weather and/or obstructions to visibility. * = Denotes
station may not report precipitation (e.g., rain,snow,etc.),
thunder or fog.

VAZ042-051-052>054-056-200200-
NORTHERN VIRGINIA

CITY           SKY/WX    TMP DP  RH WIND       PRES   REMARKS
WASH NATIONAL  MOCLDY    80  64  58 E6        29.89R
DULLES         MOCLDY    76  66  71 SE7       29.89R
FORT BELVOIR   PTCLDY    74  67  77 CALM      29.89R
QUANTICO       PTCLDY    78  69  73 SE5       29.89R
FREDERICKSBRG* PTCLDY    74  73  97 CALM      29.88R
STAFFORD*      PTCLDY    71  71 100 CALM      29.92S FOG
WARRENTON      PTCLDY    72  72 100 CALM      29.89R
CULPEPER*      PTCLDY   N/A N/A N/A CALM      29.89S
MANASSAS*      CLEAR     75  72  88 CALM      29.88
LEESBURG*      MOCLDY    79  70  73 SE3       29.90R
WINCHESTER     PTCLDY    73  68  83 SE5       29.89F
$$

VAZ048-049-060>072-079>083-200200-
CENTRAL AND SOUTH CENTRAL VIRGINIA...AND NORTH CENTRAL NORTH CAROLINA

CITY           SKY/WX    TMP DP  RH WIND       PRES   REMARKS
RICHMOND       MOCLDY    76  71  85 CALM      29.88R
CHESTERFIELD*  PTCLDY    75  63  64 CALM      29.89R
HANOVER        PTCLDY    73  72  96 CALM      29.90R FOG
TAPPAHANNOCK*  PTCLDY    75  70  83 CALM      29.88R
CHARLOTTSVILLE MOCLDY    75  70  84 S5        29.90R
ORANGE*        MOCLDY    72  68  88 CALM      29.92R
LOUISA*        MOCLDY    72  70  94 CALM      29.89R
FARMVILLE*     PTCLDY    73  73 100 CALM      29.87R
SOUTH HILL*    MOCLDY    77  77 100 CALM      29.93R
ROANOKE RAPIDS PTCLDY    73  72  94 CALM      29.87R
RALEIGH        MOCLDY    77  71  82 CALM      29.88R
$$

VAZ088>098-200200-
SOUTHEAST VIRGINIA

CITY           SKY/WX    TMP DP  RH WIND       PRES   REMARKS
NORFOLK        MOCLDY    77  71  82 E12G21    29.85R
VIRGINIA BEACH CLOUDY    77  73  87 NE12      29.84R
NORFOLK NAVAL  MOCLDY    78  71  79 NE13      29.87R
WEST POINT*    PTCLDY    76  72  87 CALM      29.88R
NEWPORT NEWS   CLEAR     78  71  79 E9        29.85S
LANGLEY AFB    PTCLDY    76  75  99 NE14      29.84S
FORT EUSTIS    PTCLDY    75 N/A N/A VRB3      29.84R
WILLIAMSBURG*  MOCLDY    75  73  94 CALM      29.87R
FRANKLIN*      PTCLDY    73  72  94 CALM      29.86R
WAKEFIELD      MOCLDY    74  71  91 CALM      29.87R
$$

VAZ020-022-025-037-045-200200-
WESTERN AND SOUTHWEST VIRGINIA

CITY           SKY/WX    TMP DP  RH WIND       PRES   REMARKS
STAUNTON*      MOCLDY    72  67  84 CALM      29.94R
HOT SPRINGS VA NOT AVBL
LYNCHBURG      TSTM      73  71  93 W7        29.93R FOG
DANVILLE       PTCLDY    75  72  90 CALM      29.89R
MARTINSVILLE   MOCLDY    73  73  99 CALM      29.93S FOG
ROANOKE        MOCLDY    75  68  78 NE14      29.95R
BLACKSBURG     CLOUDY    70  70 100 CALM      29.99R FOG
DUBLIN*        MOCLDY    69  69 100 SW5       29.99R FOG
MARION*        CLOUDY    71  68  91 W3        30.03R
HILLSVILLE*    MOCLDY    68  67  94 CALM      30.01R
RICHLANDS*     DRIZZLE   75  69  82 W6        30.00R
WISE*          CLOUDY    72  68  88 SW3       30.02R
ABINGDON*      MOCLDY    72  71  98 CALM      29.98R
$$

MDZ021>025-VAZ099-100-200200-
SOUTHERN MARYLAND AND THE DELMARVA PENINSULA

CITY           SKY/WX    TMP DP  RH WIND       PRES   REMARKS
PATUXENT RIVER PTCLDY    76  68  76 E9        29.87R
BAY BRIDGE APT   N/A     75  61  60 E6        29.89R
LEONARDTOWN    PTCLDY    73  68  83 CALM      29.90R
DOVER          PTCLDY    72  66  81 SE3       29.88R
GEORGETOWN     CLEAR     70  64  81 E10       29.90R
EASTON         CLEAR     75  66  73 CALM      29.93R
CAMBRIDGE      CLEAR     73  63  68 E5        29.88S
SALISBURY      CLEAR     73  64  73 NE5       29.88S
OCEAN CITY     CLEAR     74  66  76 E7        29.89R
WALLOPS ISLAND CLEAR     75  67  76 E14       29.88R
ACCOMACK*      CLEAR     72  66  83 NE7       29.86S
$$

NCZ012>017-030>032-200200-
EASTERN NORTH CAROLINA

CITY           SKY/WX    TMP DP  RH WIND       PRES   REMARKS
ELIZABETH CITY CLEAR     76  73  91 N9        29.85R FOG
AHOSKIE*       PTCLDY    73  72  94 CALM      29.87R
EDENTON*       MOCLDY    77  74  92 N5        29.86R
CURRITUCK*     CLOUDY    78  71  79 N5        29.85R
KILL DEVIL HLS CLOUDY    77  74  90 N3        29.83R
MANTEO         MOCLDY    77  73  88 E5        29.85R
CAPE HATTERAS  PTCLDY    81  73  76 NW6       29.84R
GOLDSBORO      MOCLDY    79  78  96 CALM      29.84R
WASHINGTON     MOCLDY    77  73  88 CALM      29.85R
GREENVILLE     MOCLDY    77  75  94 CALM      29.88R
NEW BERN       CLOUDY    79  75  87 CALM      29.86R
WILMINGTON     CLOUDY    76  74  93 S6        29.86S
$$

VAZ048-200200-
ELSEWHERE

CITY           SKY/WX    TMP DP  RH WIND       PRES   REMARKS
HARRISBURG PA  MOCLDY    76  67  73 S3        29.87S
BALTIMORE      MOCLDY    76  64  66 SE5       29.88R
ANNAPOLIS      PTCLDY    77  65  66 E7        29.89R
ANDREWS AFB    MOCLDY    74  66  76 E5        29.90R
WILMINGTON DE  PTCLDY    76  66  71 S8        29.91R
PHILADELPHIA   MOCLDY    76  64  66 SE5       29.90R
WILDWOOD NJ*   CLEAR     73  63  68 E7        29.91R
ATLANTIC CITY  CLEAR     69  63  81 E3        29.91R
HENDERSON NC   MOCLDY    76  73  90 CALM      29.88S
GREENSBORO     MOCLDY    78  71  79 NE3       29.91R
ROCKY MOUNT    MOCLDY    76  73  91 CALM      29.87R
FAYETTEVILLE   PTCLDY    76  73  91 CALM      29.86R
CHARLOTTE      MOCLDY    76  71  85 CALM      29.90R
$$

VAZ100-200200-
MARINE

STATION/POSITION TIME  TEMP    WIND        PRES    WAVE   SWELL
                       AIR SEA DIR/SP/G            HT/PER HT/PER
                 (UTC) (F)     (DEG/KT/KT) (MB)    (FT/S) (FT/S)
44066 TX TWR #4  0100   73 75   70/ 10/ 14 1012.9R   2/ 4   2/ 7
CAPE MAY NJ      0100   73 79   80/  2/  4 1011.9S
LEWES DE         0100   74 76  110/  4/  5 1012.1S
15NM E FENWICK I 0100   75 75              1011.7R   4/ 6
OCEAN-CITY-INLET 0100   75 75   70/  7/ 11 1011.4S
WACHAPREAGUE VA  0100   75 80   50/ 10/ 14 1011.2S
THOMAS POINT MD  0100   77 78  100/  9/ 10 1012.6R
GOOSES REEF MD   0100   78     120/ 10/ 12 1012.2R
COVE POINT MD    0100   76     110/  9/ 11 1011.5S
SOLOMONS ISLAND  0100      80                N/A
BISHOPS HEAD MD  0100   76 80   80/ 12/ 15 1011.2R
PINEY POINT MD   0100          130/ 12/ 13   N/A
POTOMAC MD       0100   78      90/ 12/ 14 1010.6S
CAMBRIDGE MD     0100   75 79  100/  5/  8 1011.6R
LEWISETTA VA     0100   77 80  110/ 13/ 15 1011.0S
RAPPAHANNOCK LGT 0100           50/ 13/ 15 1011.4F
STINGRAY PT      0100   77      80/ 12/ 16 1011.8F
YORK RVR RNG VA  0100   76      80/ 16/ 18 1010.3S
YORKTOWN VA      0100   77 80   70/ 16/ 18 1010.6R
JAMESTOWN VA     0100   74      90/  4/  6   N/A
DOMINION TERM VA 0100   77      60/  8/ 12 1010.6S
KIPTOPEKE VA     0100      82   80/  7/ 15   N/A
CHES BAY BRIDGE  0100   77 77   40/ 16/ 20 1010.0R
CAPE HENRY VA    0100   76      40/ 18/ 20 1009.2F
CHESAPEAKE LGHT  0000   76      50/ 14/ 15 1010.7R
WILLOUBY STN VA  0100   77      60/ 14/ 15 1009.4R
S CRANEY ISL VA  0100           30/ 10/ 12 1010.3R
CAPE HENRY BUOY  0100      78                N/A     3/ 6
1ST LANDING BUOY 0100   77      50/ 14/ 17 1010.3R
CAPE CHARLES BUO 0100      76                N/A     3/ 6   2/ 6
OFFSHORE WE BUOY 0100      77                N/A     3/ 6   2/ 6
64NM E OF VA BCH 0100   78 79   30/ 14/ 16 1009.7R   3/ 6   2/ 7
DUCK PIER NC     0100   78 79   20/  8/ 10 1009.4S
44056 DUCK FRF   0100                        N/A     1/ 9
OREGON INLET NC  0100   78 81   40/  4/  5 1010.1R
HATTERAS NC      0100   82 82  300/  6/  7 1010.6R
DIAMOND SHLS NC  0100   80     230/ 10/ 12 1010.1R   3/ 6   2/ 6
CAPE LOOKOUT NC  0000   82     280/  8/ 10 1010.4R
$$


USA.gov is the U.S. government's official web portal to all federal, state and local government web resources and services.